Tracking 30298 objects as of 27-Apr-2025
HD Live streaming from Space Station
objects crossing your sky now

FENGYUN 1C DEB

Track FENGYUN 1C DEB now!
10-day predictions


NORAD ID: 30320
Int'l Code: 1999-025AAH
Perigee: 843.8 km
Apogee: 969.1 km
Inclination: 99.2 °
Period: 103.0 minutes
Semi major axis: 7277 km
RCS: 0.0266 m2 (small)
Launch date: May 10, 1999
Source: People's Republic of China (PRC)
Launch site: Taiyaun Space Center, China (TSC)

Note: This is SATELLITE DEBRIS
Your satellite tracking list
Your tracking list is empty




NASA's NSSDC Master Catalog

Two Line Element Set (TLE):
1 30320U 99025AAH 25117.13570400  .00000188  00000-0  15844-3 0  9991
2 30320  99.2130 175.6648 0086140 202.9789 213.5606 13.98406522931980
Source of the keplerian elements: AFSPC